C/2019 H1 ( NEOWISE )

Japanese version
Home page
Updated on May 19, 2019

---------------------------------------------------------------------

* Profile

Discovery Date April 18, 2019
Magnitude 18 mag
Discoverer Near-Earth Object Wide-field Infrared Survey Explorer

* Orbital Elements

Epoch 2019 Apr. 27.0 TT = JDT 2458600.5
T 2019 Apr. 27.75502 TT                                 MPCW
q   1.8448521            (2000.0)            P               Q
z  +0.0039937      Peri.   19.29346     -0.09655045     -0.23292616
 +/-0.0004741      Node   269.18822     -0.99198133     -0.05714288
e   0.9926321      Incl.  104.58233     -0.08155401     +0.97081414
From 90 observations 2019 Apr. 9-May 7, mean residual 0".5.

* Magnitudes Graph

        m1 = 15.0 + 5 log d + 10.0 log r

---------------------------------------------------------------------

The orbital elements are published on M.P.E.C. 2019-J142.
The magnitudes graphs are made with Comet for Windows.

---------------------------------------------------------------------

Copyright(C) Seiichi Yoshida (comet@aerith.net). All rights reserved.